Showing default

TDS 1, 40076

Orbit data source: Space-Track

TDS 1, 40076 is a payload satellite owned by UK TSB (UK) in SSO that was launched on Tue, 08 Jul 2014 UTC via a SOYUZ-2-1B launch vehicle from the Tyuratam Missile And Space Complex (TTMTR). Payload-class satellites include a variety of spacecraft equipped with specific instruments for various scientific and technological missions. These include communications satellites like Starlink; space stations such as the ISS; scientific satellites like the Hubble; Earth observation satellites from companies like Planet Labs, Umbra, and HawkEye 360; GPS; miniature CubeSats for education and research; and military/defense satellites.

Loading next visibility...
Identifier
40076, 2014-037H
Orbit
SSO
Last TLE update
14 hours ago
Origin
Manufacturer
SSTL (Astrium)
Mission
Partially operational Civil Technology
Bus & Motor
SSTL-150, AOCS
Mass
157 kg wet, 157 kg dry
Launch date (UTC)
2014-07-08 (11 years ago)
Launch vehicle
SOYUZ-2-1B
Launch site
Tyuratam Missile And Space Complex (TTMTR)
Object type
Payload
Rocket body
Debris
Shape & HBR
Box, 1 m
Radar Cross Section
1.500 m², Medium (>0.1 m² and < 1m²)

Expand to show TLE details & history

TLE from 14 hours ago
0 TDS 1
1 40076U 14037H   25186.44113928  .00005792  00000-0  40278-3 0  9993
2 40076  98.3432 142.1733 0007416   5.0008 355.1290 15.05927111595916
Epoch: 2025-07-05T10:35Z
TLE epoch observation values (Epoch: 2025-07-05T10:35:14.433Z)
Latitude
0.00001°
Longitude
59.68402°
Altitude
546.585 km
Speed
7.592 km/s
True Right ascension
09h 28m 41s
True Declination
0° 00' 00"
Sunlit
Object was in daylight at epoch
Visualization orbit readout
Latitude
-21.2948°
Longitude
63.5854°
Altitude
552.089 km
Speed
7.587 km/s
Apparent Right ascension
06h 27m 57s
Apparent Declination
-54° 45' 52"
Sunlit
Object is in daylight
Visualization observer readout
Local Sidereal Time
12:47:16
Azimuth
224° SW
Elevation
-34.148°
Doppler factor
1
Orbital elements
Apogee altitude
550.823 km
Perigee altitude
540.554 km
Semi-major axis
6,923.825 km
Eccentricity
0.00074
Inclination
98.3432°
RAAN
142.1733°
Arg. of periapsis
5.0008°
True anomaly
Unknown
Mean anomaly
355.129°
Eccentric anomaly
Unknown
Mean motion
3.76725 °/min
Orbital period
95.56 mins
BSTAR
0.00040278
Loading maneuver chart data...
Loading SW <> Apogee altitude chart data...
Loading historical data...
Loading historical data...
Loading historical data...
Loading historical data...
Loading historical data...
Loading historical data...
Loading historical data...

TDS 1 Visibility forecast

Observer location: undefined°, undefined°

Span
Click to sort rows by Start time (UTC) header in descending order
Start Az.
Max El. time (UTC)
Max El. Az.
Max El.
End time (UTC)
End Az.
7 mins2025-07-06 09:28:41.002Z32.097° NE2025-07-06 09:31:41.002Z82.833° E29.837°2025-07-06 09:35:41.002Z166.355° S
4 mins2025-07-06 20:14:41.002Z96.531° ESE2025-07-06 20:15:41.002Z75.813° E20.14°2025-07-06 20:18:41.002Z20.717° NNE
5 mins2025-07-06 21:48:41.002Z222.798° SW2025-07-06 21:50:41.002Z267.7° W23.095°2025-07-06 21:53:41.002Z319.485° NNW
|